Change the Weather History Date:

Wednesday, December 24, 2014

  Actual Average Record
Temperature  
Mean Temperature 24 °F -  
Max Temperature 39 °F 40 °F 57 °F (1999)
Min Temperature 8 °F 16 °F -9 °F (1998)
Degree Days  
Heating Degree Days 42    
Moisture  
Dew Point 11 °F    
Average Humidity 55    
Maximum Humidity 85    
Minimum Humidity 35    
Precipitation  
Precipitation 0.00 in - - ()
Sea Level Pressure  
Sea Level Pressure 29.75 in    
Wind  
Wind Speed 4 mph (ENE)    
Max Wind Speed 8 mph    
Max Gust Speed -    
Visibility 10 miles    
Events      
Averages and records for this station are not official NWS values.
T = Trace of Precipitation, MM = Missing Value Source: NWS Daily Summary

Daily Weather History Graph

Daily Weather History Graph

Search for Another Location

Airport or City:

Trip Planner

Search our weather history database for the weather conditions in past years. The results will help you decide how hot, cold, wet, or windy it might be!

Date:

Astronomy

Dec. 24, 2014 Rise Set
Actual Time 7:21 AM MST 4:38 PM MST
Civil Twilight 6:50 AM MST 5:09 PM MST
Nautical Twilight 6:15 AM MST 5:43 PM MST
Astronomical Twilight 5:42 AM MST 6:16 PM MST
Moon 9:13 AM MST (12/24) 8:06 PM MST (12/24)
Length of Visible Light 10h 18m
Length of Day
9h 17m
Waxing Crescent, 10% of the Moon is Illuminated
Dec 24
Waxing Crescent
Dec 28
First Quarter
Jan 4
Full
Jan 13
Last Quarter
Jan 20
New

Hourly Weather History & Observations

Time (MST) Temp. Windchill Dew Point Humidity Pressure Visibility Wind Dir Wind Speed Gust Speed Precip Events Conditions
12:15 AM 19.4 °F 10.4 °F 6.8 °F 58% 30.08 in 10.0 mi South 6.9 mph - N/A   Clear
12:35 AM 17.6 °F 8.2 °F 6.8 °F 63% 30.06 in 10.0 mi SSW 6.9 mph - N/A   Clear
12:55 AM 17.6 °F 9.3 °F 6.8 °F 63% 30.06 in 10.0 mi SSW 5.8 mph - N/A   Clear
1:15 AM 17.6 °F 10.7 °F 6.8 °F 63% 30.05 in 10.0 mi SW 4.6 mph - N/A   Clear
1:35 AM 19.4 °F 14.3 °F 8.6 °F 63% 30.05 in 10.0 mi SSW 3.5 mph - N/A   Clear
1:55 AM 19.4 °F 11.5 °F 5.0 °F 54% 30.03 in 10.0 mi SSE 5.8 mph - N/A   Clear
2:15 AM 19.4 °F 10.4 °F 6.8 °F 58% 30.01 in 10.0 mi SSE 6.9 mph - N/A   Clear
2:35 AM 15.8 °F 5.1 °F 5.0 °F 62% 30.01 in 10.0 mi SSE 8.1 mph - N/A   Clear
2:55 AM 15.8 °F 7.2 °F 3.2 °F 58% 29.99 in 10.0 mi SE 5.8 mph - N/A   Clear
3:15 AM 12.2 °F 6.1 °F 3.2 °F 67% 29.99 in 10.0 mi WNW 3.5 mph - N/A   Clear
3:35 AM 12.2 °F 4.3 °F 3.2 °F 67% 29.98 in 10.0 mi North 4.6 mph - N/A   Clear
3:55 AM 12.2 °F 1.7 °F 5.0 °F 73% 29.98 in 10.0 mi North 6.9 mph - N/A   Clear
4:15 AM 14.0 °F 5.1 °F 6.8 °F 73% 29.97 in 10.0 mi North 5.8 mph - N/A   Clear
4:35 AM 15.8 °F - 8.6 °F 73% 29.95 in 10.0 mi Calm Calm - N/A   Clear
4:55 AM 14.0 °F - 6.8 °F 73% 29.94 in 10.0 mi Calm Calm - N/A   Clear
5:15 AM 14.0 °F - 6.8 °F 73% 29.94 in 10.0 mi Calm Calm - N/A   Clear
5:35 AM 15.8 °F - 6.8 °F 68% 29.93 in 10.0 mi Calm Calm - N/A   Clear
5:55 AM 15.8 °F - 6.8 °F 68% 29.92 in 10.0 mi Calm Calm - N/A   Clear
6:15 AM 15.8 °F 10.2 °F 6.8 °F 68% 29.92 in 10.0 mi North 3.5 mph - N/A   Clear
6:35 AM 15.8 °F - 6.8 °F 68% 29.91 in 10.0 mi Calm Calm - N/A   Clear
6:55 AM 15.8 °F - 6.8 °F 68% 29.91 in 10.0 mi Calm Calm - N/A   Clear
7:15 AM 15.8 °F 8.6 °F 6.8 °F 68% 29.90 in 10.0 mi North 4.6 mph - N/A   Clear
7:35 AM 8.6 °F - 1.4 °F 73% 29.90 in 10.0 mi Calm Calm - N/A   Clear
7:55 AM 12.2 °F - 8.6 °F 85% 29.89 in 10.0 mi Calm Calm - N/A   Clear
8:15 AM 14.0 °F - 8.6 °F 79% 29.89 in 10.0 mi Calm Calm - N/A   Clear
8:35 AM 15.8 °F - 10.4 °F 79% 29.87 in 10.0 mi Calm Calm - N/A   Clear
8:55 AM 19.4 °F - 12.2 °F 74% 29.86 in 10.0 mi Calm Calm - N/A   Clear
9:15 AM 21.2 °F - 12.2 °F 68% 29.86 in 10.0 mi Calm Calm - N/A   Clear
9:35 AM 23.0 °F - 12.2 °F 63% 29.85 in 10.0 mi Calm Calm - N/A   Clear
9:55 AM 26.6 °F - 12.2 °F 55% 29.85 in 10.0 mi Calm Calm - N/A   Clear
10:15 AM 26.6 °F 21.2 °F 10.4 °F 51% 29.83 in 10.0 mi WSW 4.6 mph - N/A   Clear
10:35 AM 28.4 °F 22.2 °F 8.6 °F 43% 29.81 in 10.0 mi SSW 5.8 mph - N/A   Clear
10:55 AM 30.2 °F - 10.4 °F 44% 29.79 in 10.0 mi Calm Calm - N/A   Clear
11:15 AM 32.0 °F - 10.4 °F 41% 29.78 in 10.0 mi Calm Calm - N/A   Clear
11:35 AM 35.6 °F 30.7 °F 10.4 °F 35% 29.75 in 10.0 mi South 5.8 mph - N/A   Clear
11:55 AM 37.4 °F 32.8 °F 12.2 °F 36% 29.73 in 10.0 mi South 5.8 mph - N/A   Clear
12:15 PM 37.4 °F 33.8 °F 12.2 °F 36% 29.71 in 10.0 mi SSE 4.6 mph - N/A   Clear
12:35 PM 37.4 °F 33.8 °F 12.2 °F 36% 29.71 in 10.0 mi SSE 4.6 mph - N/A   Clear
12:55 PM 37.4 °F - 14.0 °F 38% 29.71 in 10.0 mi Calm Calm - N/A   Clear
1:15 PM 37.4 °F 34.9 °F 14.0 °F 38% 29.70 in 10.0 mi SE 3.5 mph - N/A   Clear
1:35 PM 37.4 °F 32.1 °F 14.0 °F 38% 29.68 in 10.0 mi East 6.9 mph - N/A   Clear
1:55 PM 37.4 °F 34.9 °F 14.0 °F 38% 29.68 in 10.0 mi ESE 3.5 mph - N/A   Clear
2:15 PM 39.2 °F 37.0 °F 14.0 °F 36% 29.68 in 10.0 mi SE 3.5 mph - N/A   Clear
2:35 PM 39.2 °F - 14.0 °F 36% 29.66 in 10.0 mi Calm Calm - N/A   Clear
2:55 PM 37.4 °F - 14.0 °F 38% 29.66 in 10.0 mi Calm Calm - N/A   Clear
3:15 PM 37.4 °F - 14.0 °F 38% 29.65 in 10.0 mi Calm Calm - N/A   Clear
3:35 PM 37.4 °F - 14.0 °F 38% 29.65 in 10.0 mi Calm Calm - N/A   Clear
3:55 PM 39.2 °F 37.0 °F 15.8 °F 39% 29.64 in 10.0 mi North 3.5 mph - N/A   Clear
4:15 PM 35.6 °F - 14.0 °F 41% 29.63 in 10.0 mi Calm Calm - N/A   Clear
4:35 PM 35.6 °F 32.8 °F 14.0 °F 41% 29.62 in 10.0 mi North 3.5 mph - N/A   Clear
4:55 PM 33.8 °F 30.8 °F 12.2 °F 41% 29.62 in 10.0 mi NNE 3.5 mph - N/A   Clear
5:15 PM 33.8 °F 29.6 °F 12.2 °F 41% 29.61 in 10.0 mi NE 4.6 mph - N/A   Clear
5:35 PM 32.0 °F 28.7 °F 12.2 °F 44% 29.59 in 10.0 mi East 3.5 mph - N/A   Clear
5:55 PM 33.8 °F - 12.2 °F 41% 29.59 in 10.0 mi Calm Calm - N/A   Clear
6:15 PM 33.8 °F 30.8 °F 12.2 °F 41% 29.58 in 10.0 mi NE 3.5 mph - N/A   Clear
6:35 PM 28.4 °F 24.6 °F 10.4 °F 47% 29.57 in 10.0 mi North 3.5 mph - N/A   Clear
6:55 PM 28.4 °F 22.2 °F 12.2 °F 51% 29.57 in 10.0 mi NW 5.8 mph - N/A   Clear
7:15 PM 28.4 °F 21.2 °F 14.0 °F 55% 29.57 in 10.0 mi North 6.9 mph - N/A   Clear
7:35 PM 30.2 °F - 14.0 °F 51% 29.56 in 10.0 mi Calm Calm - N/A   Clear
7:55 PM 28.4 °F - 12.2 °F 51% 29.53 in 10.0 mi Calm Calm - N/A   Clear
8:15 PM 30.2 °F 25.4 °F 15.8 °F 55% 29.53 in 10.0 mi North 4.6 mph - N/A   Clear
8:35 PM 28.4 °F 22.2 °F 14.0 °F 55% 29.51 in 10.0 mi North 5.8 mph - N/A   Clear
8:55 PM 28.4 °F 22.2 °F 15.8 °F 59% 29.50 in 10.0 mi NNE 5.8 mph - N/A   Clear
9:15 PM 30.2 °F 24.3 °F 14.0 °F 51% 29.50 in 10.0 mi NNE 5.8 mph - N/A   Clear
9:35 PM 28.4 °F 21.2 °F 14.0 °F 55% 29.50 in 10.0 mi NNE 6.9 mph - N/A   Clear
9:55 PM 28.4 °F - 15.8 °F 59% 29.50 in 10.0 mi Calm Calm - N/A   Clear
10:15 PM 26.6 °F 22.6 °F 15.8 °F 64% 29.49 in 10.0 mi SSE 3.5 mph - N/A   Clear
10:35 PM 26.6 °F 18.2 °F 15.8 °F 64% 29.48 in 10.0 mi NNE 8.1 mph - N/A   Clear
10:55 PM 30.2 °F 22.6 °F 15.8 °F 55% 29.47 in 10.0 mi NE 8.1 mph - N/A   Clear
11:15 PM 28.4 °F 20.4 °F 14.0 °F 55% 29.46 in 10.0 mi East 8.1 mph - N/A   Clear
11:35 PM 33.8 °F 29.6 °F 17.6 °F 52% 29.45 in 10.0 mi North 4.6 mph - N/A   Clear
11:55 PM 26.6 °F 22.6 °F 12.2 °F 55% 29.45 in 10.0 mi North 3.5 mph - N/A   Clear